Regional Weather Roundup
Issued by NWS

Home | Current Version | Previous Version | Graphics & Text | Print | Product List | Glossary On
Versions: 1 2 3 4 5 6 7 8 9 10 11 12 13 14 15 16 17 18 19 20 21 22 23 24 25 26 27 28 29 30 31 32 33 34 35 36 37 38 39 40 41 42 43 44
000
ASUS43 KDMX 020907
RWRIA

WEATHER ROUNDUP FOR IOWA
NATIONAL WEATHER SERVICE DES MOINES IA
400 AM CDT THU OCT 02 2014

NOTE: "FAIR" INDICATES FEW OR NO CLOUDS BELOW 12,000 FEET WITH NO
SIGNIFICANT WEATHER AND/OR OBSTRUCTIONS TO VISIBILITY.

* - THESE STATIONS ARE NOT NWS STATIONS...THUS NOT UNDER NWS
QUALITY CONTROL.  THEY ALSO DO NOT REPORT WEATHER SUCH
AS PRECIPITATION OR FOG.

IAZ001>003-012>014-020>022-031>034-043>046-021000-
   NORTHWEST IOWA

CITY           SKY/WX    TMP DP  RH WIND       PRES   REMARKS
CARROLL *      FOG       59  59 100 CALM      29.78F VSB 1/2
CHEROKEE *     MOCLDY    57  57 100 N6        29.78F
DENISON *      FOG       63  63 100 E3        29.76S VSB 1/4
LE MARS *      PTCLDY    57  54  88 N5        29.80F
ORANGE CITY *  PTCLDY    57  50  77 NE7       29.80F
SHELDON *      CLOUDY    55  52  88 NE7       29.81R
SIOUX CITY     CLOUDY    58  55  90 NW8       29.78F
SPENCER        CLOUDY    59  58  96 N10       29.80F
STORM LAKE *   PTCLDY    59  59 100 CALM      29.79F FOG
$$

IAZ055>058-069>071-079>083-090>094-021000-
   SOUTHWEST IOWA

CITY           SKY/WX    TMP DP  RH WIND       PRES   REMARKS
ATLANTIC *     FOG       63  63 100 E5        29.76F VSB 1/4
AUDUBON *      HAZE      61  55  82 CALM      29.78F VSB 0
CLARINDA *     CLOUDY    64  64 100 NE5       29.76F FOG
COUNCIL BLFS * FOG       63  63 100 SE7       29.76S VSB 0
CRESTON *      FOG       63  63 100 E5        29.79R VSB 0
HARLAN  *      FOG       63  63 100 CALM      29.80F VSB 0
LAMONI         CLOUDY    65  63  93 E3        29.77F FOG
RED OAK *      FOG       64  64 100 SE6       29.76F VSB 3/4
SHENANDOAH *   CLOUDY    66  64  94 E7        29.74F FOG
$$

IAZ047>049-059>061-072>074-084-021000-
   CENTRAL IOWA

CITY           SKY/WX    TMP DP  RH WIND       PRES   REMARKS
AMES           CLOUDY    61  61 100 CALM      29.79F FOG
ANKENY *       CLOUDY    64  64 100 CALM      29.78S FOG
CHARITON *     FOG       63  63 100 SE5       29.79S VSB 0
DES MOINES     CLOUDY    64  63  96 E3        29.78R FOG
GRINNELL*      CLOUDY    64  63  94 E3        29.81S FOG
KNOXVILLE *    FOG       64  63  94 CALM      29.77F VSB 1/4
MARSHALLTOWN   CLOUDY    63  63 100 SE7       29.80S FOG
PELLA *        CLOUDY    64  64 100 CALM      29.80F FOG
PERRY *        FOG       61  61 100 CALM      29.79S VSB<1/4
$$

IAZ004>006-015-016-023>025-035-036-021000-
   NORTH CENTRAL IOWA

CITY           SKY/WX    TMP DP  RH WIND       PRES   REMARKS
ALGONA *       FOG       59  59 100 NE6       29.80S VSB 0
CLARION *      CLOUDY    61  61 100 CALM      29.80S
ESTHERVILLE    PTCLDY    55  55 100 N7        29.80S
FORT DODGE *   CLOUDY    57  57 100 CALM      29.80S VSB<1/4
MASON CITY     FOG       55  55 100 N5        29.82F VSB 1/4
FOREST CITY *  FOG       59  59 100 CALM      29.81S VSB 0
IOWA FALLS *   FOG       61  61 100 SE3       29.81S VSB 1/4
$$

IAZ007>011-017>019-026>030-037>042-050>054-066-021000-
   NORTHEAST IOWA

CITY           SKY/WX    TMP DP  RH WIND       PRES   REMARKS
CHARLES CITY * CLOUDY    61  61 100 CALM      29.82R FOG
CLINTON *      CLOUDY    64  61  88 E5        29.84R
DECORAH *      CLOUDY    61  61 100 CALM      29.81S FOG
MONTICELLO *   CLOUDY    63  63 100 CALM      29.82R
OELWEIN *      FOG       61  61 100 CALM      29.81F VSB 3/4
WATERLOO       CLOUDY    62  61  96 SE5       29.79F FOG
$$

IAZ064-065-067-068-078-021000-
   EAST CENTRAL IOWA

CITY           SKY/WX    TMP DP  RH WIND       PRES   REMARKS
IOWA CITY      CLOUDY    65  63  93 N3        29.82S
MT. PLEASANT * FOG       61  61 100 CALM      29.80R VSB 1/2
MUSCATINE *    CLOUDY    64  61  88 CALM      29.80R
QUAD CITIES    CLOUDY    64  62  93 CALM      29.81R FOG
$$

IAZ062-063-075>077-085>089-095>099-021000-
   SOUTHEAST IOWA

CITY           SKY/WX    TMP DP  RH WIND       PRES   REMARKS
BURLINGTON     CLOUDY    64  64 100 CALM      29.79R FOG
FAIRFIELD *    CLOUDY    63  63 100 CALM      29.80S
FORT MADISON * CLOUDY    66  64  94 CALM      29.81R FOG
KEOKUK *       MOCLDY    64  64 100 W7        29.80R FOG
OSKALOOSA *    CLOUDY    63  63 100 E3        29.80S FOG
CENTERVILLE *  CLOUDY    64  64 100 E3        29.81R FOG
OTTUMWA        FOG       63  62  97 E5        29.80R VSB 1/4
WASHINGTON *   CLOUDY    63  63 100 NE3       29.80S FOG
$$

ABBREVIATIONS USED IN REMARKS
   TC - TEMPERATURES IN CELSIUS
  WCI - WIND CHILL INDEX
   HX - HEAT INDEX
  VSB - VISIBILITY
$$



USA.gov is the U.S. government's official web portal to all federal, state and local government web resources and services.